SCP
0 0 0 0 0 0 0 0 0 0 0 0 0 0 0 0 0 0 0 0 0 0 0 0 0 0 0 0 0 0 0 0 0 0 0 0 0 0 0 0 0 0 0
0 0 0 0 0 0 0 0 0 0 0 0 0 0 0 0 0 0 0 0 0 0 0 0 0 0 0 0 0 0 0 0 0 0 0 0 0 0 0 0 0 0 0
0 0 0 0 0 0 0 0 0 0 0 0 0 0 0 0 0 0 0 0 0 0 0 0 0 0 0 0 0 0 0 0 0 0 0 0 0 0 0 0 0 0 0
0 0 0 0 0 0 0 0 0 0 0 0 0 0 0 0 0 0 0 0 0 0 -0 0 0 0 0 0 0 0 0 0 0 0 0 0 0 0 0 0 0 0 0
0 0 0 0 0 0 0 0 0 0 0 0 0 0 0 0 0 0 0 0 0 0 -0 -0 0 0 0 0 0 0 0 0 0 0 0 0 0 0 0 0 0 0 0
0 0 0 0 0 0 0 0 0 0 0 0 0 0 0 0 0 0 0 0 0 0 0 0 0 -0 0 0 0 0 0 0 0 0 0 0 0 0 0 0 0 0 0
0 0 0 0 0 0 0 0 0 0 0 0 0 0 0 0 0 0 -0 -0 0 0 0 0 0 -0 0 0 0 0 0 0 0 0 0 0 0 0 0 0 0 0 0
0 0 0 0 0 0 0 0 0 0 0 0 0 0 0 0 0 -0 -0 -0 -0 -0 -0 0 0 -0 0 0 0 0 0 0 0 0 0 0 0 0 0 0 0 0 0
0 0 0 0 0 0 0 0 0 0 0 0 0 0 0 0 -0 -0 -0 -0 0 0 -0 -0 -0 0 0 0 0 0 0 0 0 0 0 0 0 0 0 0 0 0 0
0 0 0 0 0 0 0 0 0 0 0 0 0 0 0 0 0 0 0 0 0 0 0 0 0 0 0 0 0 0 0 0 0 0 0 0 0 0 0 0 0 0 0
0 0 0 0 0 0 0 0 0 0 0 0 0 0 0 0 0 -0 0 0 0 -0 0 0 0 0 0 0 0 0 0 0 0 0 0 0 0 0 0 0 0 0 0
0 0 0 0 0 0 0 0 0 0 0 0 0 0 0 0 0 0 0 0 0 0 0 0 0 0 0 0 0 0 0 0 0 0 0 0 0 0 0 0 0 0 0
0 0 -0 0 0 0 0 0 0 0 0 0 0 0 0 0 0 -0 -0 -0 -0 0 0 -0 -0 -0 -0 0 0 0 0 0 0 0 0 0 0 0 0 0 0 0 0
-0 -0 0 -0 -0 0 0 0 0 0 0 0 0 -0 -0 0 0 0 0 0 -0 0 -0 0 -0 0 -0 0 0 0 0 0 0 0 0 0 0 0 0 0 0 0 0
-0 -0 -0 -0 -0 -0 -0 0 0 0 0 0 0 0 0 0 0 -0 -0 0 0 0 0 0 0 0 0 0 0 0 0 0 0 0 0 0 0 0 0 0 0 0 0
0 -0 -0 -0 -0 -0 -0 -0 -0 -0 0 0 0 0 0 -0 -0 -0 -0 -0 -0 -0 0 0 0 0 0 0 0 0 0 0 0 0 0 0 0 0 0 0 0 0 0
0 -0 -0 -0 -0 -0 -0 -0 0 0 -0 0 0 -0 -0 0 -0 -0 -0 -0 -0 -0 0 0 0 0 0 0 0 0 0 0 0 -0 -0 -0 0 0 0 0 0 0 0
0 0 -0 0 0 0 0 -0 -0 0 0 0 0 0 0 0 0 0 0 0 0 0 0 0 0 0 0 0 0 0 0 0 -0 -0 -0 0 0 0 0 0 0 0 0
0 0 0 0 0 0 -0 -0 0 -0 -0 -0 0 0 0 -0 -0 -0 -0 0 0 0 0 0 0 0 0 0 0 0 -0 -0 -0 0 0 0 0 0 0 0 0 0 0
0 0 0 0 0 0 -0 -0 -0 0 0 0 0 0 0 0 0 0 0 0 0 0 0 0 0 0 0 0 -0 -0 -0 -0 0 0 0 0 0 0 0 0 0 0 0
0 0 0 0 0 0 -0 -0 -0 0 0 0 0 0 -0 0 0 0 0 0 0 0 0 -0 -0 -0 -0 -0 -0 0 0 0 0 0 0 0 0 0 0 0 0 0 0
0 0 0 0 0 0 0 0 0 0 0 0 0 0 0 0 0 0 0 -0 -0 -0 -0 -0 -0 0 0 0 0 0 0 0 0 0 0 0 0 0 0 0 0 0 0
0 0 0 0 0 0 0 0 0 0 0 0 0 0 0 0 0 0 0 0 -0 -0 0 0 0 0 0 0 0 0 0 0 -0 0 0 0 0 0 0 0 0 0 0
0 0 0 0 0 0 0 0 0 0 0 0 0 0 0 0 0 0 0 0 0 0 0 0 0 0 0 0 0 0 0 0 0 0 0 0 0 0 0 0 0 0 0
0 0 0 0 0 0 0 0 0 0 0 -0 -0 -0 -0 -0 -0 0 0 0 0 0 0 0 0 0 0 0 0 0 0 0 0 0 0 0 0 0 0 0 0 0 0
0 0 0 0 0 0 0 0 0 0 0 0 -0 -0 -0 0 0 0 0 0 0 0 0 0 0 0 0 0 0 0 0 -0 -0 0 0 0 0 0 0 0 0 0 0
Wind_Speed_500mb
74 74 71 66 63 60 62 69 71 72 72 74 75 74 78 85 80 77 90 95 83 87 90 83 89 83 83 84 88 74 87 89 81 76 101 117 104 116 114 109 104 102 104
73 71 65 62 56 55 60 59 60 66 66 68 73 70 71 67 76 80 80 74 83 72 86 75 81 80 80 81 87 95 92 91 90 85 80 95 103 102 114 112 95 115 107
70 65 61 55 50 53 56 58 60 64 66 67 70 70 70 68 75 79 76 80 85 79 60 69 63 76 79 78 76 76 86 83 91 87 70 68 79 88 88 100 111 118 110
63 60 55 50 50 51 53 58 61 63 65 65 65 66 64 65 67 66 70 71 72 71 87 83 62 49 79 85 80 81 80 82 92 91 85 79 78 84 88 97 108 117 113
58 57 51 49 49 49 54 59 56 59 59 58 57 57 55 54 57 58 61 68 67 74 72 70 70 77 67 85 85 86 88 83 79 80 83 85 84 86 87 93 97 99 109
56 56 47 47 44 49 52 53 52 53 52 47 41 34 34 42 45 46 47 56 63 59 61 64 55 92 56 78 81 87 80 80 80 75 78 87 83 88 82 86 92 91 93
53 51 46 46 45 48 46 48 48 47 45 39 29 22 25 28 32 40 41 46 41 53 58 60 44 84 50 68 71 68 67 63 61 57 67 66 79 88 88 86 92 94 91
51 48 44 44 44 42 40 37 38 43 43 38 26 15 14 16 20 26 36 40 46 51 40 51 50 66 66 72 63 57 58 54 53 62 64 57 64 60 65 75 85 80 68
47 46 41 39 41 41 37 37 42 40 39 33 19 11 6 2 11 23 32 33 26 35 41 44 53 51 53 48 54 47 45 51 52 49 46 44 44 44 50 69 71 65 55
46 45 40 35 33 36 33 33 34 30 30 25 21 12 9 5 4 13 20 26 21 28 28 55 47 56 35 40 39 37 47 47 44 41 39 33 24 22 30 44 46 56 49
44 40 36 31 29 28 29 27 25 25 25 21 24 23 17 16 19 19 14 20 19 27 26 27 37 36 34 29 26 34 39 41 33 29 26 24 24 32 38 35 28 24 33
42 38 36 30 27 26 24 21 18 18 20 23 25 26 28 29 26 23 18 13 17 19 35 35 30 24 22 20 21 22 26 26 26 28 44 54 53 48 45 45 42 35 25
40 34 33 31 27 27 26 24 21 21 23 28 30 29 34 32 33 31 26 28 30 28 30 32 31 33 32 31 26 28 30 31 42 58 56 54 50 46 43 37 30 23 20
34 28 26 31 35 36 37 41 42 37 32 29 33 34 34 35 35 32 37 38 35 41 43 43 43 41 40 44 42 47 53 55 54 56 57 50 43 38 33 27 22 18 13
29 26 23 29 38 42 47 47 49 49 46 42 40 37 39 41 34 32 41 51 55 57 61 56 56 60 61 60 59 57 56 55 53 48 43 41 37 32 28 23 17 13 10
17 20 22 25 32 38 44 49 49 49 52 55 54 54 48 43 39 39 46 50 53 57 68 73 73 69 68 64 61 57 50 44 42 38 37 34 32 26 21 16 11 10 8
5 6 14 18 20 27 34 41 47 48 52 53 50 48 48 50 51 53 54 57 57 57 69 68 66 62 59 53 49 45 44 39 36 35 32 29 24 23 19 16 12 8 6
12 10 3 1 4 7 16 26 32 36 42 46 47 46 43 44 43 42 45 51 59 59 61 59 57 52 47 44 41 39 39 37 32 30 27 24 22 18 16 14 12 11 11
21 19 14 10 5 7 10 18 26 33 37 37 36 35 36 36 37 39 38 41 49 50 48 47 44 42 40 38 36 35 32 30 27 23 23 20 18 15 15 15 12 11 13
33 26 23 18 14 10 10 13 18 23 28 29 29 31 29 27 33 35 35 38 40 43 42 41 40 37 35 32 31 29 27 26 24 21 20 18 16 13 12 10 8 10 12
42 36 31 28 23 17 14 13 13 15 17 18 21 24 24 17 27 29 31 32 33 34 34 33 34 33 32 30 28 27 26 25 22 19 18 17 15 12 12 12 12 16 20
51 45 42 38 33 29 24 20 16 15 15 15 17 20 22 18 21 24 27 29 31 32 32 32 33 32 31 29 26 24 23 21 20 18 16 15 13 14 17 19 22 24 25
57 53 49 46 41 37 31 26 21 17 16 16 17 19 23 23 25 26 28 31 33 34 33 29 27 29 28 25 24 22 19 20 19 18 16 17 17 18 20 23 24 23 22
65 59 56 54 50 45 39 34 29 24 22 21 22 21 24 25 26 29 32 34 32 31 30 27 25 23 23 22 21 21 19 19 19 17 17 17 18 20 19 20 21 21 22
70 66 63 60 57 53 47 42 36 32 30 29 29 29 31 30 32 33 34 33 32 31 31 27 24 23 22 20 19 18 18 18 17 18 18 17 16 17 19 19 19 18 18
75 74 65 62 62 58 53 48 43 38 36 35 35 37 36 37 36 35 34 33 32 29 28 26 24 21 19 18 16 16 18 18 15 13 12 11 16 19 15 15 16 14 15
Wind_Direction_500mb
323 320 315 306 301 303 295 290 290 290 287 280 275 269 263 259 261 259 251 249 248 245 239 239 233 234 231 233 233 234 236 227 228 229 227 224 222 225 225 224 232 231 229
325 320 312 310 313 309 302 309 308 302 297 291 284 277 269 257 254 253 248 247 245 248 234 241 227 230 229 230 232 230 232 226 217 217 227 225 226 234 229 226 242 230 232
325 322 318 317 321 318 317 318 313 306 301 294 287 280 273 261 253 252 249 244 242 238 231 240 228 228 228 226 232 233 229 231 226 223 228 225 227 227 231 231 233 228 229
326 324 321 327 328 327 325 320 316 316 311 302 290 281 275 266 257 249 244 241 244 248 244 235 239 230 229 224 220 226 223 219 223 226 236 234 230 233 239 237 233 230 232
328 327 325 327 330 329 329 325 327 323 316 307 295 283 273 264 255 250 241 239 239 242 245 245 241 237 234 227 222 223 225 224 227 228 231 237 243 233 228 233 231 234 231
330 325 326 325 327 329 330 332 332 329 326 320 308 287 267 260 252 248 241 238 240 240 242 236 242 227 241 222 221 223 227 224 231 233 233 239 240 238 239 231 228 228 226
334 332 332 330 332 331 337 336 339 336 335 336 319 292 273 261 248 237 234 233 230 226 234 238 241 224 251 212 221 228 235 237 245 255 249 247 247 244 243 238 238 236 231
335 339 342 342 337 338 342 342 344 339 342 334 330 319 280 262 234 231 229 236 237 238 236 226 230 224 233 209 214 224 229 233 243 247 249 258 257 260 258 250 235 227 226
340 342 347 343 338 342 347 346 347 349 354 351 337 339 356 288 227 227 221 226 239 223 218 229 205 221 198 203 210 222 231 235 237 236 243 251 257 263 257 240 226 219 204
343 344 348 349 347 346 354 352 354 -0 8 17 27 58 68 88 202 217 204 214 225 223 229 204 229 202 199 212 213 218 225 229 228 220 228 228 232 234 229 225 214 202 206
349 349 353 358 355 351 0 2 4 17 28 44 65 74 73 55 90 108 140 179 197 184 208 208 193 198 193 190 208 226 232 222 211 215 209 202 181 169 168 167 162 175 181
356 1 6 11 7 3 6 13 17 34 50 68 84 93 96 87 72 75 80 100 146 188 164 151 143 148 159 173 180 194 200 203 194 180 166 152 150 150 143 142 140 144 152
359 12 22 31 30 28 31 32 33 47 59 66 76 80 78 82 90 99 96 108 125 134 132 134 131 123 127 135 146 158 168 171 166 155 147 142 142 141 135 129 124 141 161
1 12 37 51 57 58 58 57 55 53 57 65 73 76 85 90 93 102 114 128 140 136 135 127 127 131 136 131 135 144 146 149 147 140 135 132 129 120 134 141 144 155 163
10 23 53 67 69 66 63 59 61 61 61 68 74 80 84 85 91 109 122 130 130 131 127 124 122 124 125 128 130 128 125 126 126 124 125 131 137 141 138 140 143 153 179
9 33 58 82 83 78 78 77 73 73 71 70 71 74 78 84 97 104 112 117 123 127 123 122 124 126 126 126 123 120 119 119 123 131 136 138 136 135 127 128 139 154 159
315 39 69 74 85 87 86 84 84 82 83 81 77 78 83 91 97 103 109 115 119 122 118 121 122 121 118 117 119 123 128 133 138 141 140 137 132 129 126 121 101 85 57
234 241 230 181 100 89 94 96 98 95 91 91 93 95 97 98 100 105 110 117 118 115 116 119 119 120 121 124 129 133 133 131 135 130 124 115 106 98 94 80 62 36 22
224 227 236 244 208 144 118 117 111 105 100 96 97 97 100 104 108 112 122 117 115 114 114 114 115 119 123 126 128 127 126 125 119 111 103 96 88 76 71 65 54 34 13
225 215 222 222 214 186 156 140 123 113 110 110 106 100 99 107 113 115 113 110 113 115 119 121 123 126 127 128 125 122 119 114 111 105 99 93 88 82 78 75 56 29 17
225 217 215 220 215 200 190 178 159 144 134 126 116 109 109 123 119 122 123 125 125 124 125 127 126 126 125 124 123 119 114 107 101 98 97 98 95 94 89 80 64 50 44
225 219 216 219 217 211 203 202 196 180 166 160 153 148 141 145 137 135 135 133 130 128 126 128 128 127 124 118 113 111 110 109 108 103 102 107 110 96 74 60 51 43 39
224 220 216 218 218 217 213 213 215 208 196 187 176 168 156 157 151 147 144 140 136 134 131 130 129 126 121 118 116 111 107 107 108 108 102 93 84 70 57 45 38 37 39
221 221 219 218 219 220 219 219 219 218 215 206 194 183 170 163 158 153 150 146 143 139 135 134 130 125 122 122 123 118 111 105 101 95 85 74 65 57 41 29 33 40 41
221 221 219 218 219 221 221 221 217 214 212 207 199 191 179 172 165 161 155 151 150 148 145 143 138 134 131 126 120 113 106 99 90 79 68 59 47 30 23 34 44 53 47
221 218 223 220 219 221 223 221 216 211 207 201 195 190 182 176 172 169 165 161 158 155 152 148 146 142 134 125 112 96 86 78 72 70 55 41 25 23 40 52 52 58 41
Wind_Speed_850mb
74 74 71 66 63 60 62 69 71 72 72 74 75 74 78 85 80 77 90 95 83 87 90 83 89 83 83 84 88 74 87 89 81 76 101 117 104 116 114 109 104 102 104
73 71 65 62 56 55 60 59 60 66 66 68 73 70 71 67 76 80 80 74 83 72 86 75 81 80 80 81 87 95 92 91 90 85 80 95 103 102 114 112 95 115 107
70 65 61 55 50 53 56 58 60 64 66 67 70 70 70 68 75 79 76 80 85 79 60 69 63 76 79 78 76 76 86 83 91 87 70 68 79 88 88 100 111 118 110
63 60 55 50 50 51 53 58 61 63 65 65 65 66 64 65 67 66 70 71 72 71 87 83 62 49 79 85 80 81 80 82 92 91 85 79 78 84 88 97 108 117 113
58 57 51 49 49 49 54 59 56 59 59 58 57 57 55 54 57 58 61 68 67 74 72 70 70 77 67 85 85 86 88 83 79 80 83 85 84 86 87 93 97 99 109
56 56 47 47 44 49 52 53 52 53 52 47 41 34 34 42 45 46 47 56 63 59 61 64 55 92 56 78 81 87 80 80 80 75 78 87 83 88 82 86 92 91 93
53 51 46 46 45 48 46 48 48 47 45 39 29 22 25 28 32 40 41 46 41 53 58 60 44 84 50 68 71 68 67 63 61 57 67 66 79 88 88 86 92 94 91
51 48 44 44 44 42 40 37 38 43 43 38 26 15 14 16 20 26 36 40 46 51 40 51 50 66 66 72 63 57 58 54 53 62 64 57 64 60 65 75 85 80 68
47 46 41 39 41 41 37 37 42 40 39 33 19 11 6 2 11 23 32 33 26 35 41 44 53 51 53 48 54 47 45 51 52 49 46 44 44 44 50 69 71 65 55
46 45 40 35 33 36 33 33 34 30 30 25 21 12 9 5 4 13 20 26 21 28 28 55 47 56 35 40 39 37 47 47 44 41 39 33 24 22 30 44 46 56 49
44 40 36 31 29 28 29 27 25 25 25 21 24 23 17 16 19 19 14 20 19 27 26 27 37 36 34 29 26 34 39 41 33 29 26 24 24 32 38 35 28 24 33
42 38 36 30 27 26 24 21 18 18 20 23 25 26 28 29 26 23 18 13 17 19 35 35 30 24 22 20 21 22 26 26 26 28 44 54 53 48 45 45 42 35 25
40 34 33 31 27 27 26 24 21 21 23 28 30 29 34 32 33 31 26 28 30 28 30 32 31 33 32 31 26 28 30 31 42 58 56 54 50 46 43 37 30 23 20
34 28 26 31 35 36 37 41 42 37 32 29 33 34 34 35 35 32 37 38 35 41 43 43 43 41 40 44 42 47 53 55 54 56 57 50 43 38 33 27 22 18 13
29 26 23 29 38 42 47 47 49 49 46 42 40 37 39 41 34 32 41 51 55 57 61 56 56 60 61 60 59 57 56 55 53 48 43 41 37 32 28 23 17 13 10
17 20 22 25 32 38 44 49 49 49 52 55 54 54 48 43 39 39 46 50 53 57 68 73 73 69 68 64 61 57 50 44 42 38 37 34 32 26 21 16 11 10 8
5 6 14 18 20 27 34 41 47 48 52 53 50 48 48 50 51 53 54 57 57 57 69 68 66 62 59 53 49 45 44 39 36 35 32 29 24 23 19 16 12 8 6
12 10 3 1 4 7 16 26 32 36 42 46 47 46 43 44 43 42 45 51 59 59 61 59 57 52 47 44 41 39 39 37 32 30 27 24 22 18 16 14 12 11 11
21 19 14 10 5 7 10 18 26 33 37 37 36 35 36 36 37 39 38 41 49 50 48 47 44 42 40 38 36 35 32 30 27 23 23 20 18 15 15 15 12 11 13
33 26 23 18 14 10 10 13 18 23 28 29 29 31 29 27 33 35 35 38 40 43 42 41 40 37 35 32 31 29 27 26 24 21 20 18 16 13 12 10 8 10 12
42 36 31 28 23 17 14 13 13 15 17 18 21 24 24 17 27 29 31 32 33 34 34 33 34 33 32 30 28 27 26 25 22 19 18 17 15 12 12 12 12 16 20
51 45 42 38 33 29 24 20 16 15 15 15 17 20 22 18 21 24 27 29 31 32 32 32 33 32 31 29 26 24 23 21 20 18 16 15 13 14 17 19 22 24 25
57 53 49 46 41 37 31 26 21 17 16 16 17 19 23 23 25 26 28 31 33 34 33 29 27 29 28 25 24 22 19 20 19 18 16 17 17 18 20 23 24 23 22
65 59 56 54 50 45 39 34 29 24 22 21 22 21 24 25 26 29 32 34 32 31 30 27 25 23 23 22 21 21 19 19 19 17 17 17 18 20 19 20 21 21 22
70 66 63 60 57 53 47 42 36 32 30 29 29 29 31 30 32 33 34 33 32 31 31 27 24 23 22 20 19 18 18 18 17 18 18 17 16 17 19 19 19 18 18
75 74 65 62 62 58 53 48 43 38 36 35 35 37 36 37 36 35 34 33 32 29 28 26 24 21 19 18 16 16 18 18 15 13 12 11 16 19 15 15 16 14 15
Wind_Direction_850mb
323 320 315 306 301 303 295 290 290 290 287 280 275 269 263 259 261 259 251 249 248 245 239 239 233 234 231 233 233 234 236 227 228 229 227 224 222 225 225 224 232 231 229
325 320 312 310 313 309 302 309 308 302 297 291 284 277 269 257 254 253 248 247 245 248 234 241 227 230 229 230 232 230 232 226 217 217 227 225 226 234 229 226 242 230 232
325 322 318 317 321 318 317 318 313 306 301 294 287 280 273 261 253 252 249 244 242 238 231 240 228 228 228 226 232 233 229 231 226 223 228 225 227 227 231 231 233 228 229
326 324 321 327 328 327 325 320 316 316 311 302 290 281 275 266 257 249 244 241 244 248 244 235 239 230 229 224 220 226 223 219 223 226 236 234 230 233 239 237 233 230 232
328 327 325 327 330 329 329 325 327 323 316 307 295 283 273 264 255 250 241 239 239 242 245 245 241 237 234 227 222 223 225 224 227 228 231 237 243 233 228 233 231 234 231
330 325 326 325 327 329 330 332 332 329 326 320 308 287 267 260 252 248 241 238 240 240 242 236 242 227 241 222 221 223 227 224 231 233 233 239 240 238 239 231 228 228 226
334 332 332 330 332 331 337 336 339 336 335 336 319 292 273 261 248 237 234 233 230 226 234 238 241 224 251 212 221 228 235 237 245 255 249 247 247 244 243 238 238 236 231
335 339 342 342 337 338 342 342 344 339 342 334 330 319 280 262 234 231 229 236 237 238 236 226 230 224 233 209 214 224 229 233 243 247 249 258 257 260 258 250 235 227 226
340 342 347 343 338 342 347 346 347 349 354 351 337 339 356 288 227 227 221 226 239 223 218 229 205 221 198 203 210 222 231 235 237 236 243 251 257 263 257 240 226 219 204
343 344 348 349 347 346 354 352 354 -0 8 17 27 58 68 88 202 217 204 214 225 223 229 204 229 202 199 212 213 218 225 229 228 220 228 228 232 234 229 225 214 202 206
349 349 353 358 355 351 0 2 4 17 28 44 65 74 73 55 90 108 140 179 197 184 208 208 193 198 193 190 208 226 232 222 211 215 209 202 181 169 168 167 162 175 181
356 1 6 11 7 3 6 13 17 34 50 68 84 93 96 87 72 75 80 100 146 188 164 151 143 148 159 173 180 194 200 203 194 180 166 152 150 150 143 142 140 144 152
359 12 22 31 30 28 31 32 33 47 59 66 76 80 78 82 90 99 96 108 125 134 132 134 131 123 127 135 146 158 168 171 166 155 147 142 142 141 135 129 124 141 161
1 12 37 51 57 58 58 57 55 53 57 65 73 76 85 90 93 102 114 128 140 136 135 127 127 131 136 131 135 144 146 149 147 140 135 132 129 120 134 141 144 155 163
10 23 53 67 69 66 63 59 61 61 61 68 74 80 84 85 91 109 122 130 130 131 127 124 122 124 125 128 130 128 125 126 126 124 125 131 137 141 138 140 143 153 179
9 33 58 82 83 78 78 77 73 73 71 70 71 74 78 84 97 104 112 117 123 127 123 122 124 126 126 126 123 120 119 119 123 131 136 138 136 135 127 128 139 154 159
315 39 69 74 85 87 86 84 84 82 83 81 77 78 83 91 97 103 109 115 119 122 118 121 122 121 118 117 119 123 128 133 138 141 140 137 132 129 126 121 101 85 57
234 241 230 181 100 89 94 96 98 95 91 91 93 95 97 98 100 105 110 117 118 115 116 119 119 120 121 124 129 133 133 131 135 130 124 115 106 98 94 80 62 36 22
224 227 236 244 208 144 118 117 111 105 100 96 97 97 100 104 108 112 122 117 115 114 114 114 115 119 123 126 128 127 126 125 119 111 103 96 88 76 71 65 54 34 13
225 215 222 222 214 186 156 140 123 113 110 110 106 100 99 107 113 115 113 110 113 115 119 121 123 126 127 128 125 122 119 114 111 105 99 93 88 82 78 75 56 29 17
225 217 215 220 215 200 190 178 159 144 134 126 116 109 109 123 119 122 123 125 125 124 125 127 126 126 125 124 123 119 114 107 101 98 97 98 95 94 89 80 64 50 44
225 219 216 219 217 211 203 202 196 180 166 160 153 148 141 145 137 135 135 133 130 128 126 128 128 127 124 118 113 111 110 109 108 103 102 107 110 96 74 60 51 43 39
224 220 216 218 218 217 213 213 215 208 196 187 176 168 156 157 151 147 144 140 136 134 131 130 129 126 121 118 116 111 107 107 108 108 102 93 84 70 57 45 38 37 39
221 221 219 218 219 220 219 219 219 218 215 206 194 183 170 163 158 153 150 146 143 139 135 134 130 125 122 122 123 118 111 105 101 95 85 74 65 57 41 29 33 40 41
221 221 219 218 219 221 221 221 217 214 212 207 199 191 179 172 165 161 155 151 150 148 145 143 138 134 131 126 120 113 106 99 90 79 68 59 47 30 23 34 44 53 47
221 218 223 220 219 221 223 221 216 211 207 201 195 190 182 176 172 169 165 161 158 155 152 148 146 142 134 125 112 96 86 78 72 70 55 41 25 23 40 52 52 58 41